When you browse on this site, cookies collect data to enhance your experience and personalize the content and advertising you see.
Visit our Privacy Policy to learn more. By continuing to use the site, you agree to this use of cookies and data.
  • en France
  • Liste des pays
  • À 7 jours
  • Température de l'eau
  • Carte météo
  • Widgets météo
  • user-avatar
    Se connecter

    Météo par heure à Dahab

    Ce jour, 29 Mai, Vendredi

    Heure Température Précipitation Vent Pression Humidité
    00:00 +23°C° 0 mm 4 m/s 713 mmHg 40%
    01:00 +22°C° 0 mm 4 m/s 713 mmHg 40%
    02:00 +21°C° 0 mm 5 m/s 713 mmHg 42%
    03:00 +21°C° 0 mm 5 m/s 713 mmHg 42%
    04:00 +20°C° 0 mm 5 m/s 713 mmHg 43%
    05:00 +20°C° 0 mm 5 m/s 713 mmHg 43%
    06:00 +21°C° 0 mm 5 m/s 714 mmHg 38%
    07:00 +23°C° 0 mm 5 m/s 714 mmHg 33%
    08:00 +26°C° 0 mm 6 m/s 715 mmHg 29%
    09:00 +27°C° 0 mm 6 m/s 714 mmHg 26%
    10:00 +29°C° 0 mm 6 m/s 714 mmHg 24%
    11:00 +30°C° 0 mm 7 m/s 714 mmHg 21%
    12:00 +30°C° 0 mm 7 m/s 714 mmHg 20%
    13:00 +32°C° 0 mm 6 m/s 714 mmHg 19%
    14:00 +32°C° 0 mm 7 m/s 713 mmHg 18%
    15:00 +32°C° 0 mm 7 m/s 713 mmHg 17%
    16:00 +30°C° 0 mm 7 m/s 713 mmHg 17%
    17:00 +30°C° 0 mm 7 m/s 713 mmHg 17%
    18:00 +28°C° 0 mm 6 m/s 713 mmHg 20%
    19:00 +26°C° 0 mm 6 m/s 713 mmHg 23%
    20:00 +25°C° 0 mm 5 m/s 713 mmHg 26%
    21:00 +23°C° 0 mm 5 m/s 713 mmHg 29%
    22:00 +22°C° 0 mm 5 m/s 713 mmHg 31%
    23:00 +21°C° 0 mm 4 m/s 713 mmHg 34%

    Demain, 30 Mai, Samedi

    Heure Température Précipitation Vent Pression Humidité
    00:00 +21°C° 0 mm 4 m/s 713 mmHg 32%
    01:00 +20°C° 0 mm 4 m/s 713 mmHg 30%
    02:00 +20°C° 0 mm 4 m/s 713 mmHg 28%
    03:00 +19°C° 0 mm 4 m/s 713 mmHg 26%
    04:00 +19°C° 0 mm 4 m/s 713 mmHg 24%
    05:00 +17°C° 0 mm 5 m/s 713 mmHg 21%
    06:00 +20°C° 0 mm 5 m/s 713 mmHg 19%
    07:00 +22°C° 0 mm 4 m/s 713 mmHg 17%
    08:00 +25°C° 0 mm 4 m/s 714 mmHg 15%
    09:00 +27°C° 0 mm 5 m/s 714 mmHg 15%
    10:00 +28°C° 0 mm 5 m/s 714 mmHg 15%
    11:00 +30°C° 0 mm 5 m/s 714 mmHg 14%
    12:00 +32°C° 0 mm 5 m/s 713 mmHg 15%
    13:00 +32°C° 0 mm 5 m/s 713 mmHg 15%
    14:00 +33°C° 0 mm 5 m/s 713 mmHg 15%
    15:00 +33°C° 0 mm 5 m/s 712 mmHg 15%
    16:00 +33°C° 0 mm 5 m/s 712 mmHg 16%
    17:00 +32°C° 0 mm 5 m/s 712 mmHg 16%
    18:00 +30°C° 0 mm 5 m/s 712 mmHg 19%
    19:00 +28°C° 0 mm 5 m/s 712 mmHg 21%
    20:00 +26°C° 0 mm 4 m/s 712 mmHg 23%
    21:00 +25°C° 0 mm 4 m/s 713 mmHg 25%
    22:00 +23°C° 0 mm 4 m/s 713 mmHg 26%
    23:00 +23°C° 0 mm 4 m/s 713 mmHg 28%

    Après-demain, 31 Mai, Dimanche

    Heure Température Précipitation Vent Pression Humidité
    00:00 +22°C° 0 mm 4 m/s 713 mmHg 30%
    01:00 +21°C° 0 mm 4 m/s 712 mmHg 31%
    02:00 +21°C° 0 mm 4 m/s 712 mmHg 33%
    03:00 +21°C° 0 mm 4 m/s 712 mmHg 33%
    04:00 +20°C° 0 mm 4 m/s 712 mmHg 33%
    05:00 +20°C° 0 mm 4 m/s 712 mmHg 34%
    06:00 +23°C° 0 mm 4 m/s 713 mmHg 29%
    07:00 +26°C° 0 mm 4 m/s 713 mmHg 25%
    08:00 +28°C° 0 mm 4 m/s 713 mmHg 20%
    09:00 +30°C° 0 mm 4 m/s 713 mmHg 19%
    10:00 +32°C° 0 mm 5 m/s 713 mmHg 17%
    11:00 +34°C° 0 mm 5 m/s 713 mmHg 16%
    12:00 +34°C° 0 mm 5 m/s 712 mmHg 16%
    13:00 +35°C° 0 mm 5 m/s 712 mmHg 16%
    14:00 +35°C° 0 mm 5 m/s 711 mmHg 16%
    15:00 +35°C° 0 mm 4 m/s 711 mmHg 17%
    16:00 +35°C° 0 mm 4 m/s 711 mmHg 17%
    17:00 +34°C° 0 mm 4 m/s 711 mmHg 18%
    18:00 +32°C° 0 mm 4 m/s 711 mmHg 20%
    19:00 +30°C° 0 mm 4 m/s 711 mmHg 22%
    20:00 +28°C° 0 mm 4 m/s 712 mmHg 24%
    21:00 +27°C° 0 mm 4 m/s 712 mmHg 25%
    22:00 +27°C° 0 mm 4 m/s 712 mmHg 25%
    23:00 +26°C° 0 mm 4 m/s 712 mmHg 26%

    1 Juin, Lundi

    Heure Température Précipitation Vent Pression Humidité
    00:00 +26°C° 0 mm 4 m/s 711 mmHg 26%
    01:00 +25°C° 0 mm 5 m/s 711 mmHg 26%
    02:00 +25°C° 0 mm 5 m/s 711 mmHg 26%
    03:00 +23°C° 0 mm 5 m/s 711 mmHg 22%
    04:00 +23°C° 0 mm 4 m/s 711 mmHg 17%
    05:00 +23°C° 0 mm 4 m/s 711 mmHg 13%
    06:00 +26°C° 0 mm 4 m/s 711 mmHg 12%
    07:00 +28°C° 0 mm 5 m/s 712 mmHg 10%
    08:00 +30°C° 0 mm 5 m/s 712 mmHg 9%
    09:00 +33°C° 0 mm 5 m/s 712 mmHg 10%
    10:00 +34°C° 0 mm 6 m/s 712 mmHg 11%
    11:00 +36°C° 0 mm 6 m/s 712 mmHg 12%
    12:00 +36°C° 0 mm 6 m/s 711 mmHg 12%
    13:00 +38°C° 0 mm 7 m/s 711 mmHg 13%
    14:00 +39°C° 0 mm 7 m/s 711 mmHg 13%
    15:00 +38°C° 0 mm 7 m/s 710 mmHg 14%
    16:00 +38°C° 0 mm 7 m/s 710 mmHg 14%
    17:00 +36°C° 0 mm 6 m/s 710 mmHg 14%
    18:00 +34°C° 0 mm 6 m/s 710 mmHg 16%
    19:00 +32°C° 0 mm 5 m/s 710 mmHg 18%
    20:00 +29°C° 0 mm 4 m/s 710 mmHg 20%
    21:00 +29°C° 0 mm 4 m/s 710 mmHg 20%
    22:00 +28°C° 0 mm 3 m/s 710 mmHg 21%
    23:00 +28°C° 0 mm 3 m/s 710 mmHg 21%

    2 Juin, Mardi

    Heure Température Précipitation Vent Pression Humidité
    00:00 +27°C° 0 mm 3 m/s 710 mmHg 22%
    01:00 +27°C° 0 mm 3 m/s 710 mmHg 23%
    02:00 +27°C° 0 mm 3 m/s 709 mmHg 24%
    03:00 +26°C° 0 mm 2 m/s 709 mmHg 25%
    04:00 +26°C° 0 mm 2 m/s 709 mmHg 26%
    05:00 +25°C° 0 mm 1 m/s 709 mmHg 26%
    06:00 +28°C° 0 mm 2 m/s 709 mmHg 23%
    07:00 +31°C° 0 mm 2 m/s 710 mmHg 20%
    08:00 +34°C° 0 mm 2 m/s 711 mmHg 17%
    09:00 +35°C° 0 mm 2 m/s 711 mmHg 16%
    10:00 +36°C° 0 mm 3 m/s 710 mmHg 16%
    11:00 +37°C° 0 mm 3 m/s 710 mmHg 15%
    12:00 +38°C° 0 mm 4 m/s 710 mmHg 15%
    13:00 +38°C° 0 mm 4 m/s 710 mmHg 14%
    14:00 +40°C° 0 mm 5 m/s 709 mmHg 13%
    15:00 +38°C° 0 mm 4 m/s 709 mmHg 14%
    16:00 +38°C° 0 mm 4 m/s 708 mmHg 14%
    17:00 +37°C° 0 mm 3 m/s 708 mmHg 15%
    18:00 +35°C° 0 mm 2 m/s 708 mmHg 17%
    19:00 +32°C° 0 mm 2 m/s 709 mmHg 19%
    20:00 +30°C° 0 mm 1 m/s 709 mmHg 21%
    21:00 +29°C° 0 mm 1 m/s 709 mmHg 23%
    22:00 +29°C° 0 mm 2 m/s 709 mmHg 24%
    23:00 +29°C° 0 mm 2 m/s 710 mmHg 25%

    3 Juin, Mercredi

    Heure Température Précipitation Vent Pression Humidité
    00:00 +28°C° 0 mm 2 m/s 709 mmHg 26%
    01:00 +27°C° 0 mm 3 m/s 709 mmHg 28%
    02:00 +27°C° 0 mm 3 m/s 709 mmHg 29%
    03:00 +26°C° 0 mm 3 m/s 709 mmHg 31%
    04:00 +26°C° 0 mm 3 m/s 709 mmHg 33%
    05:00 +25°C° 0 mm 3 m/s 709 mmHg 35%
    06:00 +27°C° 0 mm 3 m/s 710 mmHg 30%
    07:00 +29°C° 0 mm 3 m/s 710 mmHg 26%
    08:00 +32°C° 0 mm 4 m/s 710 mmHg 21%
    09:00 +34°C° 0 mm 4 m/s 710 mmHg 20%
    10:00 +35°C° 0 mm 4 m/s 711 mmHg 18%
    11:00 +36°C° 0 mm 4 m/s 711 mmHg 17%
    12:00 +37°C° 0 mm 4 m/s 710 mmHg 16%
    13:00 +37°C° 0 mm 4 m/s 710 mmHg 15%
    14:00 +38°C° 0 mm 3 m/s 709 mmHg 15%
    15:00 +38°C° 0 mm 4 m/s 709 mmHg 14%
    16:00 +37°C° 0 mm 4 m/s 709 mmHg 14%
    17:00 +37°C° 0 mm 4 m/s 709 mmHg 13%
    18:00 +35°C° 0 mm 3 m/s 709 mmHg 15%
    19:00 +33°C° 0 mm 3 m/s 710 mmHg 17%
    20:00 +31°C° 0 mm 3 m/s 710 mmHg 19%
    21:00 +30°C° 0 mm 3 m/s 710 mmHg 20%
    22:00 +30°C° 0 mm 3 m/s 710 mmHg 21%
    23:00 +29°C° 0 mm 3 m/s 710 mmHg 22%
    Voir plus